• Processing (Info)

  • MPEC 2000-T21 : 2000 SC241

    The following Minor Planet Electronic Circular may be linked-to from your own Web pages, but must not otherwise be redistributed electronically.

    A form allowing access to any MPEC is at the bottom of this page.


    Read MPEC 2000-T20 Read MPEC 2000-T22


    M.P.E.C. 2000-T21                                Issued 2000 Oct. 5, 22:12 UT
    
         The Minor Planet Electronic Circulars contain information on unusual
             minor planets and routine data on comets.  They are published
       on behalf of Commission 20 of the International Astronomical Union by the
              Minor Planet Center, Smithsonian Astrophysical Observatory,
                              Cambridge, MA 02138, U.S.A.
    
                 Prepared using the Tamkin Foundation Computer Network
    
                                  MPC@CFA.HARVARD.EDU
              URL http://cfa-www.harvard.edu/iau/mpc.html  ISSN 1523-6714
    
                                      2000 SC241
    
    Observations:
         K00SO1C* C2000 09 30.33439 03 26 43.46 +20 47 53.4          19.4        704
         K00SO1C  C2000 09 30.34908 03 26 47.16 +20 46 30.1          19.3        704
         K00SO1C  C2000 09 30.36410 03 26 50.82 +20 45 04.7          19.6        704
         K00SO1C  C2000 09 30.37911 03 26 54.53 +20 43 39.7          19.4        704
         K00SO1C  C2000 10 01.40445 03 31 16.99 +19 05 07.1          19.3        704
         K00SO1C  C2000 10 01.41984 03 31 20.68 +19 03 38.1          19.4        704
         K00SO1C  C2000 10 01.43486 03 31 24.26 +19 02 09.9          19.4        704
         K00SO1C tC2000 10 01.43588 03 31 24.70 +19 02 04.4          18.6 R      684
         K00SO1C tC2000 10 01.43911 03 31 25.49 +19 01 45.8                      684
         K00SO1C FC2000 10 01.44499 03 31 26.92 +19 01 10.6                      684
         K00SO1C  C2000 10 05.38894 03 47 04.29 +12 29 09.2          19.2        704
         K00SO1C  C2000 10 05.42001 03 47 10.86 +12 26 00.0          19.4        704
         K00SO1C  C2000 10 05.43572 03 47 14.05 +12 24 25.6          20.1        704
         K00SO1C  C2000 10 05.45256 03 47 17.61 +12 22 43.3          19.9        704
    
    Observer details:
    684 Prescott.  Observer P. G. Comba.  0.46-m f/4.5 reflector + CCD.
    704 Lincoln Laboratory ETS, New Mexico.  Observers M. Blythe, F. Shelly,
        M. Bezpalko, M. Elowitz, R. Huber, L. Manguso.  Measurers J. Stuart,
        R. Sayer, J. B. Evans, H. Viggh.  1.0-m f/2.15 reflector + CCD.
    
    Orbital elements:
    2000 SC241
    Epoch 2000 Oct. 3.0 TT = JDT 2451820.5                  Spahr
    M 359.99058              (2000.0)            P               Q
    n   0.25421830     Peri.  181.54730     +0.94944349     -0.29438960
    a   2.4679225      Node   196.85404     +0.29192155     +0.95567471
    e   0.5244507      Incl.   22.09344     +0.11549403     +0.00453911
    P   3.88           H   20.2           G   0.15
    From 14 observations 2000 Sept. 30-Oct. 5.
    
    Ephemeris:
    2000 SC241               a,e,i = 2.47, 0.52, 22                  q = 1.1736
    Date    TT    R. A. (2000) Decl.     Delta      r     Elong.  Phase     V
    2000 09 23    02 51.97   +31 16.7    0.253    1.179   128.9    41.4    19.2
    2000 10 03    03 37.84   +16 28.8    0.232    1.174   133.9    37.9    18.9
    2000 10 13    04 11.57   -00 03.4    0.240    1.179   135.0    36.8    18.9
    2000 10 23    04 32.97   -13 47.0    0.272    1.196   132.6    37.7    19.3
    2000 11 02    04 44.02   -23 06.0    0.320    1.222   129.9    38.5    19.7
    2000 11 12    04 47.72   -28 34.5    0.378    1.258   128.0    38.3    20.1
    2000 11 22    04 46.95   -31 10.5    0.442    1.302   127.0    37.3    20.5
    2000 12 02    04 44.31   -31 37.7    0.511    1.353   126.3    35.9    20.9
    2000 12 12    04 42.03   -30 30.0    0.584    1.408   125.7    34.6    21.2
    2000 12 22    04 41.45   -28 15.5    0.664    1.468   124.8    33.4    21.5
    2001 01 01    04 43.28   -25 16.6    0.751    1.530   123.3    32.5    21.9
    
    Timothy B. Spahr             (C) Copyright 2000 MPC           M.P.E.C. 2000-T21
    

    Read MPEC 2000-T20 Read MPEC 2000-T22


    MPEC number:

    Enter an MPEC number in one of the following forms:

    • 1997-B01 (the full form)
    • J97B01 (the packed version of the full form)
    • B01 (the abbreviated form)